QPF
0.00 0.00 0.00 0.00 0.00 0.00 0.01 0.03 0.04 0.04 0.05 0.04 0.04 0.03 0.02 0.01 0.01 0.01 0.00 0.00 0.00 0.00 0.00 0.00 0.00 0.00 0.00 0.01 0.01 0.00 0.00 0.00 0.00 0.00 0.01 0.00 0.01 0.03 0.07 0.11 0.14 0.10 0.04
0.00 0.00 0.00 0.00 0.00 0.00 0.01 0.03 0.04 0.05 0.06 0.06 0.05 0.04 0.03 0.02 0.01 0.01 0.00 0.00 0.00 0.00 0.00 0.00 0.00 0.00 0.00 0.00 0.00 0.00 0.00 0.00 0.00 0.01 0.01 0.01 0.01 0.03 0.06 0.08 0.15 0.09 0.04
0.00 0.00 0.00 0.00 0.00 0.00 0.01 0.02 0.03 0.04 0.05 0.05 0.05 0.04 0.03 0.02 0.01 0.01 0.00 0.00 0.00 0.00 0.00 0.00 0.00 0.00 0.00 0.00 0.00 0.00 0.00 0.00 0.01 0.05 0.16 0.16 0.03 0.01 0.05 0.11 0.14 0.07 0.02
0.00 0.00 0.00 0.00 0.00 0.00 0.01 0.02 0.03 0.04 0.04 0.04 0.04 0.03 0.03 0.02 0.01 0.00 0.00 0.00 0.00 0.00 0.00 0.00 0.00 0.00 0.00 0.00 0.00 0.00 0.00 0.00 0.02 0.11 0.27 0.17 0.06 0.01 0.03 0.07 0.08 0.03 0.01
0.00 0.00 0.00 0.00 0.00 0.00 0.00 0.01 0.02 0.02 0.03 0.03 0.03 0.02 0.02 0.01 0.01 0.00 0.00 0.00 0.00 0.01 0.01 0.00 0.00 0.00 0.01 0.00 0.00 0.00 0.00 0.01 0.04 0.11 0.15 0.14 0.17 0.04 0.02 0.03 0.05 0.04 0.01
0.00 0.00 0.00 0.00 0.00 0.00 0.01 0.01 0.01 0.01 0.02 0.02 0.02 0.02 0.01 0.01 0.00 0.00 0.00 0.00 0.01 0.01 0.01 0.01 0.01 0.00 0.01 0.01 0.00 0.00 0.00 0.02 0.04 0.07 0.05 0.09 0.13 0.02 0.01 0.04 0.06 0.06 0.02
0.00 0.00 0.00 0.00 0.00 0.00 0.01 0.01 0.01 0.01 0.02 0.02 0.02 0.01 0.01 0.01 0.01 0.01 0.01 0.01 0.01 0.01 0.01 0.01 0.01 0.01 0.01 0.01 0.00 0.00 0.01 0.02 0.06 0.06 0.03 0.08 0.11 0.01 0.01 0.05 0.09 0.08 0.04
0.00 0.00 0.00 0.00 0.00 0.01 0.01 0.01 0.01 0.02 0.02 0.02 0.02 0.02 0.01 0.02 0.02 0.02 0.02 0.02 0.02 0.02 0.02 0.02 0.02 0.02 0.01 0.01 0.01 0.01 0.01 0.01 0.04 0.04 0.03 0.08 0.05 0.00 0.01 0.03 0.07 0.09 0.07
0.00 0.00 0.00 0.00 0.00 0.00 0.01 0.01 0.02 0.02 0.03 0.02 0.02 0.02 0.02 0.02 0.02 0.02 0.02 0.03 0.03 0.03 0.03 0.03 0.03 0.03 0.02 0.02 0.01 0.01 0.01 0.01 0.03 0.03 0.05 0.09 0.02 0.00 0.01 0.02 0.03 0.06 0.08
0.00 0.00 0.00 0.01 0.02 0.02 0.02 0.02 0.01 0.02 0.02 0.02 0.02 0.02 0.03 0.03 0.04 0.05 0.05 0.05 0.04 0.04 0.03 0.03 0.04 0.04 0.03 0.02 0.02 0.02 0.02 0.01 0.01 0.01 0.06 0.07 0.02 0.01 0.00 0.01 0.01 0.04 0.06
0.00 0.00 0.01 0.02 0.02 0.03 0.03 0.04 0.02 0.04 0.04 0.04 0.07 0.06 0.07 0.09 0.13 0.18 0.13 0.10 0.07 0.06 0.06 0.04 0.05 0.07 0.06 0.02 0.02 0.03 0.02 0.00 0.00 0.01 0.05 0.07 0.03 0.01 0.01 0.01 0.02 0.02 0.03
0.00 0.00 0.01 0.01 0.01 0.02 0.03 0.06 0.10 0.12 0.16 0.14 0.17 0.17 0.18 0.17 0.15 0.13 0.13 0.11 0.10 0.08 0.08 0.08 0.08 0.08 0.06 0.05 0.09 0.11 0.03 0.00 0.01 0.02 0.08 0.11 0.07 0.04 0.02 0.02 0.01 0.02 0.02
0.00 0.00 0.00 0.01 0.02 0.04 0.07 0.10 0.13 0.12 0.16 0.15 0.14 0.14 0.16 0.13 0.11 0.10 0.12 0.17 0.18 0.16 0.16 0.17 0.15 0.13 0.15 0.17 0.19 0.20 0.13 0.05 0.02 0.03 0.12 0.15 0.08 0.05 0.04 0.04 0.03 0.02 0.02
0.00 0.00 0.01 0.01 0.03 0.05 0.09 0.11 0.09 0.09 0.10 0.11 0.13 0.13 0.12 0.11 0.11 0.12 0.15 0.21 0.27 0.29 0.25 0.21 0.24 0.23 0.20 0.19 0.19 0.20 0.20 0.11 0.06 0.07 0.16 0.21 0.10 0.05 0.04 0.03 0.04 0.04 0.03
0.01 0.01 0.01 0.02 0.04 0.06 0.08 0.08 0.07 0.07 0.06 0.07 0.07 0.07 0.06 0.07 0.08 0.09 0.11 0.14 0.14 0.16 0.16 0.17 0.19 0.21 0.22 0.21 0.19 0.16 0.16 0.12 0.08 0.11 0.22 0.24 0.12 0.06 0.04 0.03 0.03 0.03 0.05
0.04 0.05 0.04 0.04 0.06 0.07 0.06 0.06 0.05 0.04 0.04 0.03 0.04 0.04 0.03 0.03 0.04 0.04 0.07 0.08 0.08 0.11 0.13 0.14 0.15 0.17 0.19 0.19 0.16 0.15 0.15 0.13 0.10 0.09 0.16 0.27 0.17 0.07 0.05 0.03 0.02 0.02 0.03
0.06 0.05 0.05 0.04 0.06 0.07 0.05 0.03 0.02 0.01 0.01 0.01 0.01 0.01 0.01 0.01 0.01 0.02 0.03 0.04 0.04 0.06 0.07 0.07 0.09 0.11 0.12 0.12 0.12 0.12 0.12 0.11 0.12 0.13 0.11 0.17 0.20 0.15 0.07 0.04 0.03 0.02 0.02
0.04 0.04 0.04 0.04 0.04 0.04 0.03 0.01 0.00 0.00 0.00 0.00 0.00 0.00 0.00 0.01 0.01 0.01 0.02 0.02 0.03 0.04 0.05 0.05 0.05 0.06 0.06 0.07 0.08 0.08 0.09 0.08 0.07 0.08 0.09 0.10 0.14 0.15 0.15 0.08 0.05 0.04 0.03
0.03 0.03 0.02 0.03 0.02 0.02 0.01 0.00 0.00 0.00 0.00 0.00 0.00 0.00 0.00 0.00 0.00 0.00 0.01 0.01 0.02 0.02 0.03 0.03 0.04 0.05 0.05 0.06 0.06 0.05 0.04 0.03 0.04 0.03 0.04 0.05 0.08 0.12 0.12 0.11 0.10 0.07 0.06
0.02 0.02 0.01 0.01 0.01 0.01 0.00 0.00 0.00 0.00 0.00 0.00 0.00 0.00 0.00 0.00 0.00 0.00 0.00 0.01 0.01 0.01 0.01 0.02 0.02 0.03 0.03 0.03 0.03 0.03 0.04 0.03 0.02 0.02 0.02 0.03 0.05 0.06 0.07 0.11 0.14 0.08 0.06
0.02 0.01 0.01 0.01 0.00 0.00 0.00 0.00 0.01 0.00 0.00 0.00 0.00 0.00 0.00 0.00 0.00 0.00 0.00 0.00 0.00 0.00 0.01 0.01 0.01 0.01 0.01 0.02 0.02 0.02 0.03 0.03 0.03 0.03 0.03 0.03 0.04 0.07 0.10 0.14 0.14 0.13 0.10
0.02 0.01 0.00 0.00 0.01 0.01 0.01 0.01 0.01 0.01 0.00 0.00 0.00 0.00 0.00 0.00 0.00 0.00 0.00 0.00 0.00 0.00 0.01 0.01 0.02 0.01 0.01 0.01 0.01 0.01 0.02 0.02 0.04 0.04 0.05 0.06 0.06 0.08 0.08 0.10 0.13 0.16 0.15
0.01 0.00 0.00 0.01 0.01 0.01 0.01 0.02 0.03 0.02 0.01 0.01 0.01 0.00 0.00 0.00 0.00 0.00 0.00 0.00 0.00 0.00 0.01 0.01 0.01 0.02 0.02 0.01 0.01 0.01 0.01 0.02 0.03 0.04 0.05 0.06 0.08 0.09 0.09 0.10 0.11 0.16 0.16
0.00 0.01 0.02 0.02 0.02 0.01 0.02 0.03 0.02 0.02 0.01 0.01 0.01 0.01 0.00 0.00 0.00 0.00 0.00 0.00 0.00 0.00 0.01 0.01 0.01 0.02 0.02 0.01 0.01 0.01 0.01 0.01 0.01 0.01 0.02 0.03 0.05 0.06 0.07 0.07 0.08 0.12 0.14
0.00 0.01 0.02 0.04 0.03 0.02 0.02 0.02 0.02 0.01 0.01 0.01 0.01 0.00 0.00 0.00 0.00 0.00 0.00 0.00 0.00 0.01 0.01 0.01 0.01 0.02 0.02 0.01 0.01 0.01 0.01 0.01 0.02 0.01 0.01 0.01 0.02 0.03 0.03 0.04 0.05 0.07 0.10
0.00 0.00 0.01 0.03 0.03 0.02 0.01 0.01 0.01 0.00 0.00 0.00 0.00 0.00 0.00 0.00 0.00 0.00 0.00 0.00 0.00 0.01 0.01 0.01 0.01 0.01 0.02 0.02 0.02 0.01 0.01 0.01 0.01 0.02 0.01 0.01 0.01 0.01 0.01 0.02 0.03 0.04 0.06
MSLP
1010.04 1010.04 1010.20 1010.55 1011.06 1011.64 1012.22 1012.70 1013.05 1013.26 1013.36 1013.44 1013.55 1013.74 1014.04 1014.42 1014.84 1015.23 1015.53 1015.72 1015.80 1015.79 1015.75 1015.73 1015.74 1015.81 1015.91 1016.03 1016.11 1016.15 1016.14 1016.07 1015.99 1015.93 1015.91 1015.94 1016.04 1016.19 1016.38 1016.58 1016.79 1017.00 1017.21
1010.10 1010.18 1010.41 1010.82 1011.36 1011.96 1012.52 1012.97 1013.27 1013.42 1013.49 1013.53 1013.64 1013.84 1014.17 1014.58 1015.03 1015.44 1015.76 1015.95 1016.03 1016.03 1015.99 1015.96 1015.98 1016.04 1016.15 1016.26 1016.34 1016.38 1016.36 1016.29 1016.22 1016.16 1016.15 1016.21 1016.33 1016.51 1016.72 1016.93 1017.15 1017.36 1017.56
1010.10 1010.28 1010.60 1011.08 1011.67 1012.28 1012.83 1013.26 1013.52 1013.65 1013.68 1013.71 1013.80 1014.01 1014.32 1014.73 1015.16 1015.55 1015.86 1016.04 1016.12 1016.13 1016.11 1016.10 1016.15 1016.24 1016.36 1016.48 1016.56 1016.59 1016.56 1016.50 1016.42 1016.37 1016.38 1016.46 1016.61 1016.81 1017.04 1017.27 1017.50 1017.71 1017.91
1010.04 1010.33 1010.75 1011.31 1011.95 1012.59 1013.15 1013.56 1013.81 1013.92 1013.94 1013.97 1014.05 1014.24 1014.53 1014.89 1015.28 1015.62 1015.87 1016.03 1016.09 1016.12 1016.13 1016.17 1016.27 1016.40 1016.55 1016.69 1016.77 1016.79 1016.74 1016.67 1016.59 1016.55 1016.58 1016.68 1016.85 1017.08 1017.33 1017.58 1017.82 1018.04 1018.25
1009.91 1010.32 1010.86 1011.50 1012.20 1012.87 1013.43 1013.84 1014.09 1014.20 1014.24 1014.27 1014.36 1014.53 1014.79 1015.09 1015.40 1015.67 1015.85 1015.96 1016.01 1016.05 1016.10 1016.20 1016.36 1016.54 1016.73 1016.88 1016.96 1016.96 1016.89 1016.80 1016.71 1016.67 1016.71 1016.84 1017.04 1017.29 1017.57 1017.84 1018.10 1018.34 1018.57
1009.75 1010.27 1010.92 1011.65 1012.40 1013.09 1013.66 1014.06 1014.31 1014.44 1014.50 1014.56 1014.67 1014.85 1015.08 1015.33 1015.56 1015.74 1015.84 1015.90 1015.92 1015.97 1016.06 1016.22 1016.44 1016.68 1016.90 1017.05 1017.12 1017.09 1017.00 1016.87 1016.76 1016.72 1016.77 1016.92 1017.14 1017.43 1017.73 1018.04 1018.32 1018.59 1018.83
1009.58 1010.22 1010.96 1011.76 1012.54 1013.24 1013.79 1014.19 1014.43 1014.58 1014.68 1014.80 1014.95 1015.15 1015.38 1015.59 1015.75 1015.84 1015.87 1015.86 1015.85 1015.90 1016.03 1016.23 1016.51 1016.79 1017.04 1017.20 1017.25 1017.19 1017.05 1016.89 1016.75 1016.70 1016.75 1016.91 1017.17 1017.48 1017.82 1018.15 1018.47 1018.75 1019.02
1009.45 1010.17 1010.99 1011.84 1012.63 1013.30 1013.82 1014.19 1014.43 1014.59 1014.74 1014.92 1015.15 1015.39 1015.64 1015.83 1015.95 1015.97 1015.92 1015.85 1015.81 1015.85 1015.99 1016.24 1016.55 1016.88 1017.14 1017.30 1017.33 1017.23 1017.05 1016.85 1016.68 1016.61 1016.66 1016.83 1017.11 1017.45 1017.82 1018.18 1018.52 1018.83 1019.13
1009.38 1010.18 1011.05 1011.91 1012.68 1013.30 1013.76 1014.07 1014.28 1014.46 1014.66 1014.92 1015.22 1015.54 1015.82 1016.03 1016.12 1016.09 1015.98 1015.85 1015.77 1015.79 1015.94 1016.21 1016.56 1016.91 1017.19 1017.35 1017.36 1017.23 1017.01 1016.76 1016.56 1016.47 1016.51 1016.69 1016.98 1017.34 1017.73 1018.12 1018.49 1018.83 1019.14
1009.39 1010.24 1011.14 1011.99 1012.70 1013.25 1013.62 1013.86 1014.04 1014.22 1014.46 1014.79 1015.18 1015.58 1015.92 1016.15 1016.24 1016.18 1016.02 1015.84 1015.71 1015.71 1015.85 1016.13 1016.49 1016.86 1017.16 1017.33 1017.33 1017.18 1016.93 1016.65 1016.42 1016.30 1016.32 1016.50 1016.80 1017.17 1017.59 1018.00 1018.38 1018.74 1019.07
1009.50 1010.38 1011.28 1012.09 1012.74 1013.19 1013.47 1013.63 1013.75 1013.92 1014.20 1014.59 1015.06 1015.54 1015.94 1016.21 1016.30 1016.21 1016.01 1015.78 1015.61 1015.58 1015.70 1015.98 1016.35 1016.75 1017.06 1017.24 1017.24 1017.09 1016.82 1016.52 1016.26 1016.12 1016.13 1016.29 1016.58 1016.96 1017.39 1017.82 1018.22 1018.59 1018.93
1009.69 1010.58 1011.47 1012.23 1012.80 1013.16 1013.33 1013.41 1013.49 1013.65 1013.95 1014.39 1014.92 1015.46 1015.92 1016.21 1016.30 1016.20 1015.97 1015.70 1015.48 1015.41 1015.51 1015.77 1016.15 1016.56 1016.90 1017.09 1017.12 1016.97 1016.71 1016.39 1016.12 1015.95 1015.93 1016.06 1016.34 1016.72 1017.15 1017.59 1018.00 1018.39 1018.74
1009.97 1010.85 1011.71 1012.42 1012.91 1013.18 1013.27 1013.28 1013.32 1013.46 1013.77 1014.24 1014.81 1015.39 1015.88 1016.20 1016.29 1016.17 1015.90 1015.59 1015.34 1015.22 1015.29 1015.54 1015.92 1016.33 1016.69 1016.91 1016.96 1016.83 1016.58 1016.26 1015.97 1015.77 1015.72 1015.82 1016.08 1016.44 1016.86 1017.31 1017.74 1018.14 1018.51
1010.30 1011.17 1011.99 1012.64 1013.07 1013.27 1013.31 1013.28 1013.28 1013.41 1013.72 1014.20 1014.79 1015.39 1015.88 1016.19 1016.28 1016.14 1015.85 1015.51 1015.22 1015.07 1015.10 1015.33 1015.68 1016.09 1016.46 1016.71 1016.78 1016.68 1016.44 1016.12 1015.82 1015.59 1015.50 1015.56 1015.77 1016.11 1016.52 1016.97 1017.42 1017.84 1018.23
1010.70 1011.53 1012.31 1012.90 1013.28 1013.45 1013.45 1013.40 1013.40 1013.52 1013.83 1014.30 1014.88 1015.45 1015.93 1016.23 1016.29 1016.14 1015.84 1015.47 1015.16 1014.98 1014.98 1015.17 1015.50 1015.89 1016.25 1016.50 1016.59 1016.51 1016.28 1015.97 1015.64 1015.39 1015.25 1015.26 1015.43 1015.73 1016.12 1016.56 1017.02 1017.47 1017.89
1011.15 1011.93 1012.64 1013.19 1013.53 1013.67 1013.68 1013.64 1013.65 1013.78 1014.08 1014.52 1015.06 1015.59 1016.03 1016.29 1016.34 1016.18 1015.88 1015.51 1015.19 1014.99 1014.96 1015.11 1015.39 1015.74 1016.08 1016.31 1016.40 1016.32 1016.10 1015.78 1015.44 1015.15 1014.97 1014.93 1015.04 1015.29 1015.65 1016.08 1016.55 1017.01 1017.46
1011.63 1012.34 1012.97 1013.46 1013.77 1013.92 1013.95 1013.94 1013.98 1014.12 1014.40 1014.81 1015.29 1015.76 1016.14 1016.37 1016.40 1016.25 1015.96 1015.62 1015.31 1015.11 1015.06 1015.16 1015.39 1015.68 1015.96 1016.16 1016.22 1016.13 1015.91 1015.59 1015.23 1014.90 1014.67 1014.57 1014.62 1014.81 1015.13 1015.54 1016.00 1016.47 1016.93
1012.15 1012.75 1013.29 1013.71 1013.99 1014.14 1014.21 1014.25 1014.32 1014.48 1014.74 1015.10 1015.51 1015.91 1016.23 1016.41 1016.44 1016.31 1016.07 1015.78 1015.51 1015.32 1015.26 1015.32 1015.48 1015.70 1015.91 1016.05 1016.08 1015.97 1015.73 1015.40 1015.02 1014.67 1014.39 1014.23 1014.21 1014.34 1014.60 1014.96 1015.39 1015.86 1016.32
1012.66 1013.14 1013.56 1013.90 1014.15 1014.31 1014.42 1014.51 1014.62 1014.79 1015.04 1015.34 1015.67 1015.99 1016.24 1016.39 1016.43 1016.34 1016.17 1015.96 1015.75 1015.60 1015.54 1015.57 1015.67 1015.81 1015.94 1016.01 1015.98 1015.84 1015.59 1015.25 1014.86 1014.49 1014.17 1013.95 1013.86 1013.91 1014.09 1014.39 1014.77 1015.20 1015.65
1013.13 1013.46 1013.77 1014.02 1014.23 1014.40 1014.55 1014.69 1014.84 1015.03 1015.24 1015.49 1015.74 1015.98 1016.17 1016.30 1016.35 1016.32 1016.24 1016.12 1016.00 1015.91 1015.86 1015.87 1015.91 1015.98 1016.03 1016.03 1015.95 1015.78 1015.51 1015.18 1014.79 1014.40 1014.05 1013.78 1013.62 1013.58 1013.67 1013.88 1014.18 1014.55 1014.95
1013.49 1013.69 1013.87 1014.05 1014.22 1014.41 1014.59 1014.78 1014.98 1015.17 1015.36 1015.55 1015.72 1015.89 1016.02 1016.13 1016.21 1016.25 1016.26 1016.24 1016.22 1016.20 1016.18 1016.18 1016.18 1016.18 1016.16 1016.10 1015.98 1015.79 1015.53 1015.20 1014.83 1014.44 1014.07 1013.75 1013.52 1013.39 1013.38 1013.48 1013.68 1013.97 1014.30
1013.71 1013.78 1013.86 1013.98 1014.13 1014.33 1014.56 1014.80 1015.04 1015.24 1015.41 1015.54 1015.65 1015.74 1015.83 1015.92 1016.02 1016.12 1016.22 1016.31 1016.39 1016.44 1016.46 1016.46 1016.44 1016.39 1016.31 1016.21 1016.06 1015.87 1015.63 1015.33 1014.99 1014.61 1014.23 1013.88 1013.58 1013.36 1013.24 1013.22 1013.31 1013.48 1013.72
1013.72 1013.71 1013.73 1013.81 1013.97 1014.21 1014.49 1014.78 1015.05 1015.27 1015.42 1015.51 1015.56 1015.59 1015.63 1015.70 1015.82 1015.97 1016.15 1016.32 1016.48 1016.59 1016.65 1016.66 1016.62 1016.54 1016.44 1016.31 1016.16 1015.99 1015.78 1015.53 1015.23 1014.88 1014.51 1014.13 1013.78 1013.47 1013.25 1013.11 1013.07 1013.12 1013.26
1013.51 1013.48 1013.48 1013.57 1013.77 1014.06 1014.40 1014.76 1015.07 1015.31 1015.45 1015.50 1015.50 1015.48 1015.47 1015.52 1015.64 1015.81 1016.03 1016.26 1016.47 1016.62 1016.71 1016.73 1016.68 1016.59 1016.48 1016.36 1016.23 1016.09 1015.93 1015.74 1015.49 1015.19 1014.84 1014.46 1014.07 1013.69 1013.37 1013.12 1012.96 1012.90 1012.92
1013.12 1013.11 1013.15 1013.29 1013.55 1013.91 1014.33 1014.75 1015.10 1015.36 1015.50 1015.53 1015.49 1015.42 1015.37 1015.39 1015.49 1015.66 1015.89 1016.13 1016.36 1016.53 1016.62 1016.64 1016.60 1016.51 1016.41 1016.30 1016.21 1016.12 1016.02 1015.90 1015.72 1015.47 1015.16 1014.78 1014.37 1013.95 1013.55 1013.21 1012.95 1012.78 1012.70
1012.59 1012.65 1012.78 1013.01 1013.35 1013.79 1014.28 1014.75 1015.15 1015.43 1015.57 1015.58 1015.51 1015.41 1015.32 1015.30 1015.36 1015.50 1015.71 1015.93 1016.14 1016.30 1016.39 1016.40 1016.35 1016.27 1016.18 1016.11 1016.06 1016.03 1016.00 1015.94 1015.83 1015.65 1015.37 1015.02 1014.61 1014.17 1013.73 1013.33 1012.99 1012.73 1012.56
Thickness
5823 5817 5811 5808 5805 5803 5801 5798 5795 5792 5789 5787 5784 5781 5779 5777 5775 5773 5771 5769 5768 5766 5765 5763 5762 5761 5759 5758 5757 5756 5755 5754 5754 5754 5753 5753 5752 5750 5750 5749 5748 5747 5745
5823 5815 5809 5806 5803 5801 5799 5796 5793 5791 5788 5785 5783 5780 5778 5775 5773 5771 5769 5768 5766 5765 5763 5762 5761 5759 5758 5757 5756 5755 5754 5753 5753 5752 5752 5751 5750 5749 5748 5748 5747 5745 5743
5821 5812 5806 5803 5800 5798 5796 5794 5791 5789 5786 5784 5781 5778 5776 5774 5772 5770 5768 5766 5765 5763 5762 5760 5759 5758 5757 5755 5754 5754 5753 5752 5751 5751 5750 5750 5749 5748 5747 5746 5745 5743 5741
5821 5812 5805 5800 5797 5795 5793 5791 5789 5786 5783 5781 5779 5776 5774 5772 5770 5768 5766 5764 5763 5761 5760 5758 5757 5756 5755 5754 5753 5752 5752 5751 5751 5750 5750 5750 5749 5746 5745 5744 5743 5741 5740
5821 5810 5801 5797 5794 5791 5789 5787 5785 5783 5780 5778 5775 5773 5771 5769 5768 5766 5764 5762 5761 5759 5758 5756 5755 5754 5753 5752 5751 5751 5751 5751 5750 5750 5751 5750 5747 5745 5744 5742 5741 5739 5738
5817 5807 5799 5795 5791 5788 5786 5783 5781 5779 5777 5774 5772 5770 5768 5766 5765 5763 5762 5760 5759 5757 5756 5754 5753 5752 5751 5750 5749 5749 5749 5749 5750 5752 5752 5750 5746 5744 5742 5741 5739 5738 5737
5817 5805 5797 5792 5788 5785 5783 5780 5778 5775 5773 5771 5769 5767 5765 5764 5762 5761 5759 5758 5756 5755 5754 5753 5751 5750 5749 5748 5747 5746 5747 5747 5749 5752 5752 5749 5746 5743 5741 5739 5738 5737 5735
5815 5804 5794 5789 5786 5782 5780 5777 5774 5772 5769 5767 5765 5763 5762 5761 5759 5758 5757 5755 5754 5753 5752 5750 5749 5748 5747 5745 5745 5744 5745 5745 5749 5752 5752 5748 5745 5743 5740 5738 5737 5735 5734
5815 5803 5794 5788 5783 5780 5777 5774 5771 5769 5766 5764 5762 5760 5758 5757 5756 5755 5754 5753 5752 5751 5750 5748 5747 5746 5745 5744 5743 5742 5742 5743 5744 5749 5750 5747 5744 5742 5739 5737 5736 5734 5733
5810 5804 5796 5791 5784 5779 5775 5771 5768 5766 5763 5761 5758 5756 5755 5754 5753 5753 5752 5750 5749 5748 5747 5746 5746 5745 5744 5742 5741 5741 5741 5741 5743 5747 5748 5745 5744 5742 5739 5737 5735 5734 5733
5802 5800 5797 5791 5784 5781 5776 5770 5765 5762 5759 5757 5755 5753 5751 5750 5751 5750 5749 5747 5746 5745 5744 5744 5743 5743 5742 5741 5740 5740 5739 5740 5743 5746 5747 5744 5742 5741 5739 5736 5735 5733 5732
5792 5792 5790 5786 5782 5779 5775 5767 5763 5760 5756 5754 5752 5749 5747 5746 5746 5746 5744 5743 5742 5741 5741 5741 5740 5740 5740 5740 5740 5739 5738 5739 5742 5744 5745 5742 5740 5739 5738 5735 5734 5733 5732
5789 5787 5784 5781 5776 5772 5768 5762 5758 5756 5752 5750 5746 5744 5741 5740 5740 5739 5739 5738 5738 5738 5738 5738 5737 5737 5738 5738 5738 5736 5736 5738 5741 5741 5742 5742 5740 5738 5737 5734 5733 5732 5731
5784 5780 5778 5774 5769 5764 5761 5757 5755 5751 5748 5744 5741 5739 5737 5736 5735 5734 5734 5734 5734 5734 5734 5733 5733 5733 5733 5733 5734 5734 5734 5736 5738 5739 5738 5739 5738 5736 5735 5733 5732 5731 5731
5777 5773 5770 5767 5761 5758 5754 5753 5750 5747 5744 5741 5737 5735 5732 5732 5730 5730 5729 5729 5730 5730 5730 5728 5727 5728 5727 5729 5730 5732 5733 5734 5735 5735 5735 5735 5735 5734 5733 5732 5731 5730 5730
5770 5767 5764 5760 5756 5753 5749 5747 5746 5744 5741 5738 5734 5731 5728 5727 5725 5725 5725 5725 5725 5724 5724 5723 5723 5723 5723 5724 5726 5728 5730 5732 5732 5732 5732 5733 5733 5732 5732 5732 5731 5730 5729
5765 5762 5759 5756 5753 5750 5747 5745 5743 5741 5738 5734 5731 5727 5724 5722 5720 5720 5721 5721 5720 5720 5720 5720 5720 5721 5720 5721 5723 5725 5726 5728 5729 5729 5730 5731 5730 5730 5730 5730 5730 5729 5729
5761 5757 5756 5756 5750 5746 5743 5742 5740 5736 5733 5730 5727 5724 5720 5717 5716 5715 5716 5716 5715 5715 5716 5716 5716 5716 5715 5716 5717 5719 5721 5724 5726 5727 5727 5728 5728 5729 5729 5729 5729 5729 5728
5758 5754 5751 5750 5747 5744 5741 5738 5736 5732 5729 5727 5724 5720 5716 5713 5712 5710 5710 5711 5710 5710 5711 5710 5710 5709 5707 5708 5710 5714 5718 5720 5723 5725 5727 5727 5727 5728 5728 5728 5728 5728 5728
5755 5752 5748 5746 5743 5741 5738 5735 5732 5730 5728 5725 5722 5716 5712 5709 5707 5705 5705 5705 5705 5705 5704 5704 5703 5703 5703 5704 5707 5710 5713 5716 5719 5721 5724 5726 5726 5726 5727 5728 5727 5726 5726
5751 5748 5746 5742 5739 5737 5734 5730 5727 5725 5723 5722 5719 5714 5710 5707 5704 5702 5701 5700 5700 5700 5699 5698 5698 5697 5698 5701 5700 5701 5707 5714 5718 5720 5721 5722 5723 5724 5725 5725 5725 5725 5725
5749 5747 5745 5741 5738 5735 5732 5728 5725 5722 5721 5720 5717 5713 5709 5705 5702 5701 5697 5696 5696 5694 5694 5694 5693 5691 5692 5696 5693 5691 5692 5700 5709 5716 5716 5716 5717 5718 5719 5721 5721 5722 5722
5749 5747 5747 5742 5739 5735 5732 5729 5726 5721 5718 5716 5714 5711 5707 5703 5700 5697 5694 5692 5691 5690 5690 5689 5689 5687 5685 5688 5690 5686 5681 5683 5689 5701 5707 5709 5710 5711 5712 5714 5716 5717 5718
5753 5752 5748 5743 5739 5734 5730 5725 5720 5716 5712 5712 5710 5708 5705 5702 5699 5696 5692 5689 5687 5686 5685 5685 5685 5682 5681 5680 5682 5685 5683 5681 5676 5680 5691 5698 5702 5704 5706 5708 5710 5711 5712
5756 5753 5748 5743 5737 5733 5728 5724 5718 5714 5712 5710 5708 5705 5702 5701 5699 5695 5691 5687 5684 5682 5682 5680 5678 5677 5675 5674 5674 5675 5676 5676 5675 5671 5672 5681 5688 5695 5699 5701 5704 5705 5707
5758 5754 5749 5741 5735 5731 5727 5723 5718 5713 5709 5705 5702 5699 5698 5698 5697 5695 5690 5686 5681 5679 5677 5675 5673 5672 5671 5669 5668 5667 5667 5666 5666 5667 5666 5669 5674 5683 5690 5694 5696 5698 5700